{"data":{"norad_id":27445,"epoch":"2026-05-25T04:22:16.489056Z","epoch_age_seconds":62328,"freshness":"FRESH","line1":"1 27445U 02030A   26145.18213529 -.00000154  00000+0  00000+0 0  9995","line2":"2 27445   3.6731  78.2828 0001768  27.5445 107.6539  1.00271393 46263","mean_motion":1.00271393,"eccentricity":0.0001768,"inclination_deg":3.6731,"raan_deg":78.2828,"arg_perigee_deg":27.5445,"mean_anomaly_deg":107.6539,"bstar":0,"rev_number":4626,"period_min":1436.1025182925,"perigee_km":35779.250109339,"apogee_km":35794.159597418,"semimajor_km":42164.841853379,"source":"CELESTRAK","updated_at":"2026-05-25T13:38:14.323109Z"}}